This demonstration page uses our WeatherBlox Daily Observations layout. Learn more.

Left ArrowRight Arrow

Hourly Observations for January 6, 2017

Temp ( °F °C ) Dew Point ( °F °C ) Humidity (%) Winds ( mph kmh ) Pressure ( in mb ) Visibility ( mi km ) Precip ( " mm )
12:15 am 00:15 Clear -9 -23 -20 -29 58 58 WSW 6 9 30.50 1033 10 16 0.00 0.00
12:35 am 00:35 Clear -8 -22 -8 -22 100 100 W 3 6 30.50 1033 10 16 0.00 0.00
12:55 am 00:55 Clear -9 -23 -20 -29 58 58 W 3 6 30.50 1033 10 16 0.00 0.00
1:15 am 01:15 Clear -11 -24 -18 -28 70 70 WNW 5 7 30.50 1033 10 16 0.00 0.00
1:35 am 01:35 Clear -11 -24 -15 -26 84 84 Calm 30.50 1033 10 16 0.00 0.00
1:55 am 01:55 Clear -11 -24 -17 -27 76 76 WNW 3 6 30.50 1033 10 16 0.00 0.00
2:15 am 02:15 Clear -11 -24 -17 -27 76 76 NW 3 6 30.50 1033 10 16 0.00 0.00
2:35 am 02:35 Clear -11 -24 -13 -25 91 91 NW 6 9 30.48 1032 10 16 0.00 0.00
2:55 am 02:55 Clear -11 -24 -22 -30 58 58 W 6 9 30.50 1033 10 16 0.00 0.00
3:15 am 03:15 Clear -13 -25 -20 -29 69 69 Calm 30.53 1034 10 16 0.00 0.00
3:35 am 03:35 Clear -15 -26 -20 -29 76 76 Calm 30.53 1034 10 16 0.00 0.00
3:55 am 03:55 Clear -9 -23 -9 -23 100 100 W 3 6 30.50 1033 10 16 0.00 0.00
4:15 am 04:15 Clear -9 -23 -24 -31 48 48 SW 7 11 30.50 1033 10 16 0.00 0.00
4:35 am 04:35 Clear -8 -22 -8 -22 100 100 W 8 13 30.50 1033 10 16 0.00 0.00
4:55 am 04:55 Clear -8 -22 -17 -27 64 64 WSW 6 9 30.50 1033 10 16 0.00 0.00
5:15 am 05:15 Clear -8 -22 -15 -26 70 70 W 7 11 30.50 1033 10 16 0.00 0.00
5:35 am 05:35 Clear -9 -23 -17 -27 70 70 Calm 30.50 1033 10 16 0.00 0.00
5:55 am 05:55 Clear -9 -23 -15 -26 77 77 Calm 30.50 1033 10 16 0.00 0.00
6:15 am 06:15 Clear -8 -22 -15 -26 70 70 W 3 6 30.50 1033 10 16 0.00 0.00
6:35 am 06:35 Clear -9 -23 -18 -28 64 64 Calm 30.50 1033 10 16 0.00 0.00
6:55 am 06:55 Clear -8 -22 -11 -24 84 84 Calm 30.50 1033 10 16 0.00 0.00
7:15 am 07:15 Clear -9 -23 -20 -29 58 58 WNW 5 7 30.50 1033 10 16 0.00 0.00
7:35 am 07:35 Clear -11 -24 -18 -28 70 70 W 3 6 30.53 1034 10 16 0.00 0.00
7:55 am 07:55 Clear -11 -24 -15 -26 84 84 WSW 5 7 30.53 1034 10 16 0.00 0.00
8:15 am 08:15 Sunny -13 -25 -22 -30 63 63 Calm 30.56 1035 10 16 0.00 0.00
8:35 am 08:35 Sunny -13 -25 -18 -28 76 76 WNW 7 11 30.56 1035 10 16 0.00 0.00
8:55 am 08:55 Sunny -9 -23 -13 -25 84 84 NW 8 13 30.53 1034 10 16 0.00 0.00
9:15 am 09:15 Sunny -8 -22 -15 -26 70 70 NW 5 7 30.53 1034 10 16 0.00 0.00
9:35 am 09:35 Sunny -8 -22 -11 -24 84 84 W 5 7 30.56 1035 10 16 0.00 0.00
9:55 am 09:55 Sunny -6 -21 -9 -23 84 84 WNW 3 6 30.53 1034 10 16 0.00 0.00
10:15 am 10:15 Sunny -2 -19 -11 -24 65 65 WNW 5 7 30.53 1034 10 16 0.00 0.00
10:35 am 10:35 Sunny -2 -19 -8 -22 77 77 WNW 5 7 30.53 1034 10 16 0.00 0.00
10:55 am 10:55 Sunny 0 -18 -9 -23 65 65 WNW 7 11 30.50 1033 10 16 0.00 0.00
11:15 am 11:15 Sunny 1 -17 -6 -21 71 71 WNW 3 6 30.50 1033 10 16 0.00 0.00
11:35 am 11:35 Sunny 3 -16 -4 -20 72 72 Calm 30.50 1033 10 16 0.00 0.00
11:55 am 11:55 Sunny 5 -15 -4 -20 66 66 Calm 30.48 1032 10 16 0.00 0.00
12:15 pm 12:15 Sunny 5 -15 -2 -19 72 72 S 3 6 30.48 1032 10 16 0.00 0.00
12:35 pm 12:35 Sunny 7 -14 -2 -19 66 66 WSW 3 6 30.48 1032 10 16 0.00 0.00
12:55 pm 12:55 Sunny 9 -13 0 -18 66 66 SSW 7 11 30.48 1032 10 16 0.00 0.00
1:15 pm 13:15 Sunny 9 -13 0 -18 66 66 WSW 7 11 30.45 1031 10 16 0.00 0.00
1:35 pm 13:35 Sunny 10 -12 0 -18 61 61 SSW 7 11 30.42 1030 10 16 0.00 0.00
1:55 pm 13:55 Sunny 9 -13 1 -17 72 72 SSW 8 13 30.45 1031 10 16 0.00 0.00
2:15 pm 14:15 Sunny 9 -13 0 -18 66 66 SW 10 17 30.45 1031 10 16 0.00 0.00
2:35 pm 14:35 Sunny 9 -13 0 -18 66 66 SW 9 15 30.45 1031 10 16 0.00 0.00
2:55 pm 14:55 Sunny 10 -12 1 -17 67 67 SW 8 13 30.42 1030 10 16 0.00 0.00
3:15 pm 15:15 Sunny 10 -12 1 -17 67 67 WSW 7 11 30.42 1030 10 16 0.00 0.00
3:35 pm 15:35 Sunny 12 -11 1 -17 62 62 WSW 8 13 30.42 1030 10 16 0.00 0.00
3:55 pm 15:55 Sunny 12 -11 1 -17 62 62 WSW 8 13 30.42 1030 10 16 0.00 0.00
4:15 pm 16:15 Sunny 12 -11 1 -17 62 62 WSW 9 15 30.42 1030 10 16 0.00 0.00
4:35 pm 16:35 Sunny 12 -11 3 -16 67 67 SW 7 11 30.42 1030 10 16 0.00 0.00
4:55 pm 16:55 Sunny 12 -11 1 -17 62 62 SSW 8 13 30.42 1030 10 16 0.00 0.00
5:15 pm 17:15 Sunny 12 -11 3 -16 67 67 SW 7 11 30.45 1031 10 16 0.00 0.00
5:35 pm 17:35 Clear 12 -11 1 -17 62 62 SW 9 15 30.45 1031 10 16 0.00 0.00
5:55 pm 17:55 Clear 10 -12 0 -18 61 61 WSW 7 11 30.45 1031 10 16 0.00 0.00
6:15 pm 18:15 Clear 10 -12 1 -17 67 67 SW 8 13 30.45 1031 10 16 0.00 0.00
6:35 pm 18:35 Clear 10 -12 1 -17 67 67 SW 10 17 30.45 1031 10 16 0.00 0.00
6:55 pm 18:55 Clear 10 -12 1 -17 67 67 SW 9 15 30.48 1032 10 16 0.00 0.00
7:15 pm 19:15 Clear 10 -12 1 -17 67 67 SW 8 13 30.48 1032 10 16 0.00 0.00
7:35 pm 19:35 Clear 9 -13 -2 -19 61 61 SW 7 11 30.50 1033 10 16 0.00 0.00
7:55 pm 19:55 Clear 9 -13 1 -17 72 72 SW 8 13 30.50 1033 10 16 0.00 0.00
8:15 pm 20:15 Clear 7 -14 -2 -19 66 66 WSW 7 11 30.50 1033 10 16 0.00 0.00
8:35 pm 20:35 Clear 9 -13 1 -17 72 72 W 6 9 30.50 1033 10 16 0.00 0.00
8:55 pm 20:55 Clear 9 -13 0 -18 66 66 W 7 11 30.50 1033 10 16 0.00 0.00
9:15 pm 21:15 Clear 9 -13 -2 -19 61 61 WSW 7 11 30.50 1033 10 16 0.00 0.00
9:35 pm 21:35 Clear 9 -13 -2 -19 61 61 W 10 17 30.50 1033 10 16 0.00 0.00
9:55 pm 21:55 Clear 10 -12 -2 -19 56 56 W 10 17 30.48 1032 10 16 0.00 0.00
10:15 pm 22:15 Clear 10 -12 -2 -19 56 56 W 8 13 30.48 1032 10 16 0.00 0.00
10:35 pm 22:35 Clear 10 -12 0 -18 61 61 W 9 15 30.48 1032 10 16 0.00 0.00
10:55 pm 22:55 Clear 9 -13 -2 -19 61 61 W 7 11 30.50 1033 10 16 0.00 0.00
11:15 pm 23:15 Clear 9 -13 -2 -19 61 61 W 8 13 30.53 1034 10 16 0.00 0.00
11:35 pm 23:35 Clear 7 -14 -2 -19 66 66 W 7 11 30.53 1034 10 16 0.00 0.00
11:55 pm 23:55 Clear 7 -14 -2 -19 66 66 WNW 8 13 30.53 1034 10 16 0.00 0.00

Powered by AerisWeather